Montreal Mirabel, Quebec

9:27 AM EDT on July 27, 2017 (GMT -0400)
Montreal Mirabel

Weather History for CYMX - January, 2014

Change the Weather History Date:

Thursday, January 16, 2014

  Actual Average Record
Temperature  
Mean Temperature 24 °F -  
Max Temperature 28 °F 15 °F 37 °F (1997)
Min Temperature 19 °F 1 °F -29 °F (2009)
Degree Days  
Heating Degree Days 42    
Moisture  
Dew Point 16 °F    
Average Humidity 71    
Maximum Humidity 86    
Minimum Humidity 51    
Precipitation  
Precipitation 0.00 in - - ()
Sea Level Pressure  
Sea Level Pressure 29.97 in    
Wind  
Wind Speed 4 mph ()    
Max Wind Speed 8 mph    
Max Gust Speed -    
Visibility 13.3 miles    
Events Snow    
Averages and records for this station are not official NWS values.
T = Trace of Precipitation, MM = Missing Value Source: Averaged Metar Reports

Daily Weather History Graph

Daily Weather History Graph

Search for Another Location

Airport or City:

Trip Planner

Search our weather history database for the weather conditions in past years. The results will help you decide how hot, cold, wet, or windy it might be!

Date:

Astronomy

Jan. 16, 2014 Rise Set
Actual Time 7:32 AM EST 4:39 PM EST
Civil Twilight 6:59 AM EST 5:13 PM EST
Nautical Twilight 6:22 AM EST 5:49 PM EST
Astronomical Twilight 5:46 AM EST 6:25 PM EST
Moon 5:34 PM EST (1/16) 7:20 AM EST (1/16)
Length of Visible Light 10h 13m
Length of Day
9h 07m
Full, 100% of the Moon is Illuminated
Jan 16
Full
Jan 24
Last Quarter
Jan 30
New
Feb 6
First Quarter
Feb 14
Full

Hourly Weather History & Observations

Time (EST) Temp. Windchill Dew Point Humidity Pressure Visibility Wind Dir Wind Speed Gust Speed Precip Events Conditions
12:00 AM 28.4 °F 20.4 °F 19.4 °F 69% 29.94 in 25.0 mi SSW 8.1 mph - N/A   Overcast
1:00 AM 26.6 °F 18.2 °F 19.4 °F 74% 29.94 in 25.0 mi SSW 8.1 mph - N/A   Overcast
2:00 AM 28.4 °F 23.3 °F 19.4 °F 69% 29.95 in 25.0 mi WSW 4.6 mph - N/A   Overcast
3:00 AM 24.8 °F - 19.4 °F 80% 29.96 in 25.0 mi North 2.3 mph - N/A   Overcast
4:00 AM 24.8 °F - 19.4 °F 80% 29.97 in 25.0 mi Calm Calm - N/A   Overcast
5:00 AM 24.8 °F - 19.4 °F 80% 29.96 in 25.0 mi WSW 2.3 mph - N/A   Overcast
5:13 AM 24.8 °F - 21.2 °F 86% 29.97 in 10.0 mi WSW 2.3 mph - N/A Snow Light Snow Showers
6:00 AM 24.8 °F - 21.2 °F 86% 29.97 in 25.0 mi Calm Calm - N/A Snow Light Snow Showers
6:33 AM 24.8 °F - 21.2 °F 86% 29.96 in 25.0 mi Calm Calm - N/A   Mostly Cloudy
7:00 AM 23.0 °F 17.0 °F 19.4 °F 86% 29.98 in 25.0 mi SSW 4.6 mph - N/A   Mostly Cloudy
8:00 AM 23.0 °F 18.4 °F 19.4 °F 86% 29.98 in 25.0 mi West 3.5 mph - N/A   Mostly Cloudy
9:00 AM 24.8 °F 19.1 °F 19.4 °F 80% 29.99 in 15.0 mi West 4.6 mph - N/A   Scattered Clouds
10:00 AM 24.8 °F 17.9 °F 17.6 °F 74% 30.02 in 15.0 mi West 5.8 mph - N/A   Scattered Clouds
11:00 AM 26.6 °F 20.0 °F 17.6 °F 69% 30.01 in 25.0 mi West 5.8 mph - N/A   Partly Cloudy
12:00 PM 28.4 °F 22.2 °F 14.0 °F 55% 29.99 in 25.0 mi WSW 5.8 mph - N/A   Partly Cloudy
1:00 PM 28.4 °F 20.4 °F 14.0 °F 55% 29.98 in 25.0 mi WSW 8.1 mph - N/A   Partly Cloudy
2:00 PM 28.4 °F 20.4 °F 12.2 °F 51% 29.96 in 30.0 mi SSW 8.1 mph - N/A   Partly Cloudy
3:00 PM 28.4 °F 22.2 °F 12.2 °F 51% 29.97 in 25.0 mi SSW 5.8 mph - N/A   Partly Cloudy
4:00 PM 28.4 °F 24.6 °F 12.2 °F 51% 29.97 in 25.0 mi SSE 3.5 mph - N/A   Scattered Clouds
5:00 PM 26.6 °F - 12.2 °F 55% 29.96 in 25.0 mi West 2.3 mph - N/A   Partly Cloudy
6:00 PM 23.0 °F - 12.2 °F 63% 29.96 in 25.0 mi NE 2.3 mph - N/A   Partly Cloudy
7:00 PM 23.0 °F - 12.2 °F 63% 29.98 in 25.0 mi Variable 2.3 mph - N/A   Mostly Cloudy
8:00 PM 19.4 °F - 12.2 °F 74% 29.97 in 25.0 mi WNW 2.3 mph - N/A   Mostly Cloudy
9:00 PM 21.2 °F 16.4 °F 14.0 °F 74% 29.98 in 25.0 mi NE 3.5 mph - N/A   Mostly Cloudy
10:00 PM 21.2 °F 14.9 °F 14.0 °F 74% 29.97 in 25.0 mi North 4.6 mph - N/A   Scattered Clouds
11:00 PM 21.2 °F 14.9 °F 14.0 °F 74% 29.97 in 25.0 mi NE 4.6 mph - N/A   Mostly Cloudy